FW4110 Weather Reports


Display with metric or nautical units.
time (UTC)temp
F
wind
direction
speed
MPH
gust
MPH
rain 1hr
in
rain 24hr
in
rain mn
in
humidity
%
barometer
mb
20210615102059 57 321 0.0 0.0 0.00 0.00 0.00 100 1017.4
20210615101527 58 321 0.0 0.0 0.00 0.00 0.00 100 1017.5
20210615101032 58 321 0.0 0.0 0.00 0.00 0.00 100 1017.4
20210615100518 58 321 0.0 0.0 0.00 0.00 0.00 100 1017.4
20210615100059 58 321 0.0 0.0 0.00 0.00 0.00 100 1017.3
20210615095536 58 321 0.0 0.0 0.00 0.00 0.00 99 1017.3
20210615095019 59 321 0.0 0.0 0.00 0.00 0.00 99 1017.3
20210615094535 59 321 0.0 0.0 0.00 0.00 0.00 97 1017.4
20210615093513 59 321 0.0 0.0 0.00 0.00 0.00 98 1017.2
20210615093036 59 321 0.0 0.0 0.00 0.00 0.00 99 1017.3
20210615092513 59 321 0.0 0.0 0.00 0.00 0.00 98 1017.3
20210615092018 59 321 0.0 0.0 0.00 0.00 0.00 97 1017.3
20210615091535 59 321 0.0 0.0 0.00 0.00 0.00 97 1017.3
20210615091008 60 321 0.0 0.0 0.00 0.00 0.00 96 1017.3
20210615090515 60 321 0.0 0.0 0.00 0.00 0.00 96 1017.3
20210615090014 60 321 0.0 0.0 0.00 0.00 0.00 95 1017.2
20210615085502 61 321 0.0 0.0 0.00 0.00 0.00 94 1017.3
20210615085006 61 321 0.0 0.0 0.00 0.00 0.00 95 1017.2
20210615084501 61 321 0.0 0.0 0.00 0.00 0.00 95 1017.1
20210615084002 60 321 0.0 0.0 0.00 0.00 0.00 94 1017.1
20210615083600 60 321 0.0 0.0 0.00 0.00 0.00 94 1017.1
20210615083216 61 321 0.0 0.0 0.00 0.00 0.00 95 1017.1
20210615082557 61 321 0.0 0.0 0.00 0.00 0.00 94 1017.0
20210615082103 61 321 0.0 0.0 0.00 0.00 0.00 94 1017.0
20210615081644 61 321 0.0 0.0 0.00 0.00 0.00 93 1016.9
20210615081059 62 321 0.0 0.0 0.00 0.00 0.00 92 1016.9
20210615080548 62 321 0.0 0.0 0.00 0.00 0.00 91 1017.1
20210615080127 62 321 0.0 0.0 0.00 0.00 0.00 90 1017.0
20210615075554 62 321 0.0 0.0 0.00 0.00 0.00 90 1017.0
20210615075047 63 321 0.0 0.0 0.00 0.00 0.00 90 1017.1
20210615074741 63 321 0.0 0.0 0.00 0.00 0.00 89 1017.1
20210615074051 63 321 0.0 0.0 0.00 0.00 0.00 89 1017.0
20210615073543 63 321 0.0 0.0 0.00 0.00 0.00 89 1016.8
20210615073123 63 321 0.0 0.0 0.00 0.00 0.00 90 1016.8
20210615072546 64 321 0.0 0.0 0.00 0.00 0.00 89 1016.9
20210615072041 64 321 0.0 0.0 0.00 0.00 0.00 89 1016.9
20210615071621 64 321 0.0 0.0 0.00 0.00 0.00 89 1017.0
20210615071041 65 321 0.0 0.0 0.00 0.00 0.00 90 1017.0
20210615070525 65 321 0.0 0.0 0.00 0.00 0.00 89 1017.0
20210615070046 65 321 0.0 0.0 0.00 0.00 0.00 88 1016.9
20210615065525 65 321 0.0 0.0 0.00 0.00 0.00 87 1016.9
20210615065023 65 321 0.0 0.0 0.00 0.00 0.00 88 1016.9
20210615064550 65 321 0.0 0.0 0.00 0.00 0.00 85 1016.9
20210615064023 65 321 0.0 0.0 0.00 0.00 0.00 86 1016.9
20210615063526 65 321 0.0 0.0 0.00 0.00 0.00 87 1016.9
20210615063111 65 321 0.0 0.0 0.00 0.00 0.00 86 1016.8
20210615062519 65 321 0.0 0.0 0.00 0.00 0.00 86 1016.8
20210615062028 65 321 0.0 0.0 0.00 0.00 0.00 86 1016.7
20210615061520 65 321 0.0 0.0 0.00 0.00 0.00 85 1016.7
20210615060615 66 321 0.0 0.0 0.00 0.00 0.00 86 1016.7
20210615060226 66 321 0.0 0.0 0.00 0.00 0.00 85 1016.8
20210615055602 67 321 0.0 0.0 0.00 0.00 0.00 85 1016.7
20210615055101 67 321 0.0 0.0 0.00 0.00 0.00 85 1016.8
20210615054635 68 321 0.0 0.0 0.00 0.00 0.00 85 1016.8
20210615054103 68 321 0.0 0.0 0.00 0.00 0.00 84 1016.8
20210615053555 69 321 0.0 0.0 0.00 0.00 0.00 83 1016.7
20210615053139 69 321 0.0 0.0 0.00 0.00 0.00 82 1016.6
20210615052604 70 321 0.0 0.0 0.00 0.00 0.00 80 1016.5
20210615052053 71 321 0.0 0.0 0.00 0.00 0.00 79 1016.4
20210615051650 71 321 0.0 1.0 0.00 0.00 0.00 77 1016.5
20210615051044 72 321 0.0 1.0 0.00 0.00 0.00 77 1016.4
20210615050540 72 321 0.0 1.0 0.00 0.00 0.00 76 1016.3
20210615050158 73 321 0.0 1.0 0.00 0.00 0.00 75 1016.3
20210615045546 73 321 0.0 2.0 0.00 0.00 0.00 74 1016.1
20210615045046 74 321 0.0 2.0 0.00 0.00 0.00 73 1016.0
20210615044614 74 335 0.0 1.0 0.00 0.00 0.00 72 1016.0
20210615044043 74 349 0.0 4.0 0.00 0.00 0.00 71 1016.1
20210615043604 75 336 1.0 4.0 0.00 0.00 0.00 71 1016.0
20210615043112 75 342 0.0 5.0 0.00 0.00 0.00 71 1016.0
20210615042551 75 349 1.0 5.0 0.00 0.00 0.00 70 1016.0
20210615042038 75 2 0.0 5.0 0.00 0.00 0.00 71 1016.0
20210615041611 75 351 1.0 5.0 0.00 0.00 0.00 72 1015.9
20210615041038 75 341 2.0 5.0 0.00 0.00 0.00 72 1015.9
20210615040517 75 33 0.0 4.0 0.00 0.00 0.00 73 1015.8
20210615040017 75 24 0.0 2.0 0.00 0.00 0.00 74 1015.8
20210615035541 75 315 0.0 2.0 0.00 0.00 0.00 77 1015.8
20210615035031 76 7 0.0 3.0 0.00 0.00 0.00 77 1015.8
20210615034535 76 2 0.0 2.0 0.00 0.00 0.00 77 1015.7
20210615034016 76 18 0.0 4.0 0.00 0.00 0.00 79 1015.7
20210615033516 76 44 0.0 2.0 0.00 0.00 0.00 81 1015.7
20210615033022 77 18 0.0 2.0 0.00 0.00 0.00 81 1015.6
20210615032516 77 7 0.0 3.0 0.00 0.00 0.00 81 1015.6
20210615032015 77 322 1.0 6.0 0.00 0.00 0.00 81 1015.5
20210615031550 77 50 1.0 6.0 0.00 0.00 0.00 82 1015.3
20210615031009 77 18 0.0 5.0 0.00 0.00 0.00 85 1015.3
20210615030510 76 1 1.0 5.0 0.00 0.00 0.00 86 1015.2
20210615025523 76 339 0.0 2.0 0.00 0.00 0.00 91 1014.9
20210615025012 76 348 0.0 2.0 0.00 0.00 0.00 91 1014.8
20210615024514 76 353 0.0 2.0 0.00 0.00 0.00 92 1014.7
20210615024008 75 343 0.0 1.0 0.00 0.00 0.00 94 1014.7
20210615023517 74 336 0.0 0.0 0.00 0.00 0.00 96 1014.6
20210615023032 75 336 0.0 0.0 0.00 0.00 0.00 95 1014.5
20210615022510 75 336 0.0 0.0 0.00 0.00 0.00 94 1014.5
20210615022008 75 336 0.0 0.0 0.00 0.00 0.00 94 1014.3
20210615021544 76 336 0.0 0.0 0.00 0.00 0.00 93 1014.3
20210615020617 77 336 0.0 0.0 0.00 0.00 0.00 91 1014.0
20210615020501 77 336 0.0 0.0 0.00 0.00 0.00 91 1014.0
20210615020140 78 336 0.0 0.0 0.00 0.00 0.00 90 1014.0
20210615015558 78 336 0.0 0.0 0.00 0.00 0.00 89 1014.0
20210615015058 80 336 0.0 0.0 0.00 0.00 0.00 88 1014.0
20210615014645 80 335 0.0 1.0 0.00 0.00 0.00 87 1013.9
20210615014058 81 336 0.0 2.0 0.00 0.00 0.00 86 1013.9
20210615013557 82 336 0.0 3.0 0.00 0.00 0.00 83 1013.9
20210615013140 82 323 1.0 5.0 0.00 0.00 0.00 83 1013.8
20210615012605 82 348 1.0 5.0 0.00 0.00 0.00 82 1013.9
20210615012108 83 310 2.0 5.0 0.00 0.00 0.00 82 1013.8
20210615011648 83 340 1.0 4.0 0.00 0.00 0.00 82 1013.8
20210615011104 83 343 2.0 4.0 0.00 0.00 0.00 82 1013.7
20210615010548 84 338 1.0 5.0 0.00 0.00 0.00 82 1013.7
20210615010205 84 357 2.0 6.0 0.00 0.00 0.00 81 1013.6
20210615005548 85 337 2.0 0.0 0.00 0.00 0.00 81 1013.6
20210615005049 85 323 2.0 5.0 0.00 0.00 0.00 81 1013.6
20210615004812 86 350 1.0 4.0 0.00 0.00 0.00 80 1013.5
20210615004048 86 307 2.0 4.0 0.00 0.00 0.00 79 1013.5
20210615003547 86 335 1.0 3.0 0.00 0.00 0.00 79 1013.4
20210615003131 86 335 0.0 2.0 0.00 0.00 0.00 80 1013.3
20210615002549 85 289 0.0 5.0 0.00 0.00 0.00 79 1013.4
20210615002046 86 326 1.0 5.0 0.00 0.00 0.00 79 1013.3
20210615001610 86 323 1.0 2.0 0.00 0.00 0.00 79 1013.4
20210615001042 86 270 0.0 4.0 0.00 0.00 0.00 79 1013.3
20210615000540 87 295 1.0 4.0 0.00 0.00 0.00 78 1013.3
20210615000056 87 312 1.0 3.0 0.00 0.00 0.00 78 1013.2
20210614235540 88 289 0.0 4.0 0.00 0.00 0.00 79 1013.2
20210614235107 88 288 2.0 5.0 0.00 0.00 0.00 76 1013.1
20210614234603 88 315 2.0 5.0 0.00 0.00 0.00 74 1013.1
20210614234038 88 325 1.0 2.0 0.00 0.00 0.00 76 1013.1
20210614233540 89 287 1.0 4.0 0.00 0.00 0.00 76 1013.0
20210614233142 90 293 1.0 4.0 0.00 0.00 0.00 76 1013.1
20210614232539 90 278 1.0 4.0 0.00 0.00 0.00 75 1012.9
20210614232109 90 296 1.0 5.0 0.00 0.00 0.00 74 1013.0
20210614231743 91 315 2.0 4.0 0.00 0.00 0.00 72 1013.0
20210614231100 91 332 2.0 4.0 0.00 0.00 0.00 73 1013.0
20210614230542 91 274 1.0 4.0 0.00 0.00 0.00 74 1012.9
20210614225530 91 286 1.0 6.0 0.00 0.00 0.00 71 1013.0
20210614225028 91 289 1.0 6.0 0.00 0.00 0.00 71 1013.0
20210614224637 91 252 1.0 5.0 0.00 0.00 0.00 71 1013.2
20210614224040 91 276 2.0 5.0 0.00 0.00 0.00 69 1013.2
20210614223527 91 284 1.0 5.0 0.00 0.00 0.00 69 1013.2
20210614223112 91 271 2.0 5.0 0.00 0.00 0.00 68 1013.2
20210614222540 91 301 0.0 6.0 0.00 0.00 0.00 69 1013.2
20210614222024 91 290 2.0 6.0 0.00 0.00 0.00 68 1013.3
20210614221607 91 277 1.0 5.0 0.00 0.00 0.00 68 1013.3
20210614221023 91 284 2.0 7.0 0.00 0.00 0.00 69 1013.2
20210614220538 91 281 1.0 5.0 0.00 0.00 0.00 69 1013.3
20210614220022 91 260 0.0 4.0 0.00 0.00 0.00 72 1013.3
20210614215521 91 302 1.0 6.0 0.00 0.00 0.00 69 1013.3
20210614215025 91 261 2.0 6.0 0.00 0.00 0.00 68 1013.2
20210614214523 91 231 1.0 5.0 0.00 0.00 0.00 65 1013.3
20210614214013 92 304 2.0 6.0 0.00 0.00 0.00 65 1013.4
20210614213513 92 279 4.0 6.0 0.00 0.00 0.00 64 1013.4
20210614213038 92 278 2.0 7.0 0.00 0.00 0.00 64 1013.4
20210614212513 92 298 3.0 7.0 0.00 0.00 0.00 63 1013.4
20210614212014 92 269 4.0 7.0 0.00 0.00 0.00 66 1013.5
20210614211515 92 290 3.0 8.0 0.00 0.00 0.00 65 1013.4
20210614211007 92 302 3.0 8.0 0.00 0.00 0.00 64 1013.4
20210614210506 92 280 1.0 6.0 0.00 0.00 0.00 66 1013.4
20210614210020 91 253 2.0 6.0 0.00 0.00 0.00 65 1013.5
20210614205505 91 258 3.0 8.0 0.00 0.00 0.00 65 1013.4
20210614205006 91 267 4.0 8.0 0.00 0.00 0.00 65 1013.6
20210614204522 91 268 4.0 9.0 0.00 0.00 0.00 65 1013.6
20210614204005 91 279 4.0 9.0 0.00 0.00 0.00 62 1013.7
20210614203509 92 279 3.0 11.0 0.00 0.00 0.00 62 1013.7
20210614203020 92 289 7.0 11.0 0.00 0.00 0.00 61 1013.6
20210614202504 92 18 3.0 9.0 0.00 0.00 0.00 63 1013.5
20210614202005 92 275 3.0 7.0 0.00 0.00 0.00 63 1013.6
20210614201503 92 297 2.0 6.0 0.00 0.00 0.00 66 1013.8
20210614201109 92 216 3.0 7.0 0.00 0.00 0.00 64 1013.8
20210614200604 91 227 2.0 10.0 0.00 0.00 0.00 64 1013.9
20210614200159 91 215 3.0 10.0 0.00 0.00 0.00 64 1013.9
20210614195606 91 275 5.0 10.0 0.00 0.00 0.00 63 1013.8
20210614195054 91 260 3.0 8.0 0.00 0.00 0.00 65 1013.8
20210614194636 91 226 1.0 8.0 0.00 0.00 0.00 68 1013.8
20210614194053 91 265 3.0 9.0 0.00 0.00 0.00 68 1014.0
20210614193552 91 286 5.0 9.0 0.00 0.00 0.00 66 1014.1
20210614193157 91 291 3.0 9.0 0.00 0.00 0.00 66 1014.2
20210614192552 91 267 4.0 9.0 0.00 0.00 0.00 63 1014.4
20210614192102 91 295 2.0 14.0 0.00 0.00 0.00 64 1014.4
20210614191636 91 278 5.0 14.0 0.00 0.00 0.00 63 1014.4
20210614191047 91 274 5.0 12.0 0.00 0.00 0.00 65 1014.4
20210614190543 91 266 6.0 12.0 0.00 0.00 0.00 64 1014.5
20210614190136 91 290 4.0 7.0 0.00 0.00 0.00 66 1014.5
20210614185608 91 265 3.0 7.0 0.00 0.00 0.00 65 1014.6
20210614185044 91 247 3.0 7.0 0.00 0.00 0.00 68 1014.5
20210614184811 90 6 1.0 5.0 0.00 0.00 0.00 69 1014.6
20210614184037 90 181 0.0 3.0 0.00 0.00 0.00 69 1014.7
20210614183543 90 223 1.0 6.0 0.00 0.00 0.00 71 1014.7
20210614183046 90 286 3.0 6.0 0.00 0.00 0.00 72 1014.9
20210614182538 90 325 2.0 4.0 0.00 0.00 0.00 71 1014.9
20210614182035 88 26 1.0 10.0 0.00 0.00 0.00 71 1014.9
20210614181551 88 276 4.0 10.0 0.00 0.00 0.00 73 1014.9
20210614181039 88 319 3.0 8.0 0.00 0.00 0.00 74 1014.9
20210614180533 88 294 3.0 8.0 0.00 0.00 0.00 73 1015.0
20210614180035 88 281 5.0 8.0 0.00 0.00 0.00 73 1015.2
20210614175536 88 299 4.0 8.0 0.00 0.00 0.00 75 1015.2
20210614175025 88 111 0.0 7.0 0.00 0.00 0.00 73 1015.1
20210614174025 88 279 2.0 9.0 0.00 0.00 0.00 73 1015.3
20210614173546 88 329 2.0 5.0 0.00 0.00 0.00 73 1015.3
20210614173031 87 290 1.0 10.0 0.00 0.00 0.00 76 1015.2
20210614172523 87 277 3.0 7.0 0.00 0.00 0.00 74 1015.3
20210614172024 87 276 3.0 7.0 0.00 0.00 0.00 77 1015.3
20210614171625 86 305 3.0 10.0 0.00 0.00 0.00 76 1015.3
20210614171005 86 277 5.0 10.0 0.00 0.00 0.00 74 1015.3
20210614170505 86 270 3.0 8.0 0.00 0.00 0.00 75 1015.4
20210614170011 86 272 1.0 6.0 0.00 0.00 0.00 73 1015.4
20210614165503 86 281 3.0 6.0 0.00 0.00 0.00 74 1015.4
20210614165001 86 217 3.0 7.0 0.00 0.00 0.00 74 1015.5
20210614164507 86 251 2.0 7.0 0.00 0.00 0.00 74 1015.6
20210614164003 86 272 3.0 7.0 0.00 0.00 0.00 76 1015.7
20210614163602 85 245 2.0 7.0 0.00 0.00 0.00 75 1015.8
20210614163309 85 293 3.0 6.0 0.00 0.00 0.00 78 1015.8
20210614162606 85 291 1.0 6.0 0.00 0.00 0.00 76 1015.7
20210614162058 84 278 3.0 8.0 0.00 0.00 0.00 76 1015.8
20210614161658 84 293 4.0 13.0 0.00 0.00 0.00 74 1015.8
20210614161108 84 279 6.0 13.0 0.00 0.00 0.00 74 1015.8
20210614160550 84 303 3.0 8.0 0.00 0.00 0.00 76 1015.9
20210614160154 84 265 4.0 10.0 0.00 0.00 0.00 74 1015.8
20210614155549 84 255 4.0 10.0 0.00 0.00 0.00 77 1015.8
20210614155046 83 319 3.0 6.0 0.00 0.00 0.00 76 1015.8
20210614154805 83 293 3.0 8.0 0.00 0.00 0.00 76 1015.9
20210614154103 83 271 4.0 11.0 0.00 0.00 0.00 76 1016.0
20210614153547 82 252 6.0 11.0 0.00 0.00 0.00 75 1016.0
20210614153136 82 257 3.0 8.0 0.00 0.00 0.00 76 1016.0
20210614152548 82 208 2.0 6.0 0.00 0.00 0.00 80 1015.8
20210614152046 81 351 2.0 6.0 0.00 0.00 0.00 82 1016.0
20210614151554 81 281 1.0 5.0 0.00 0.00 0.00 83 1015.9
20210614151035 80 324 2.0 5.0 0.00 0.00 0.00 83 1016.0
20210614150530 80 286 2.0 5.0 0.00 0.00 0.00 84 1016.1
20210614150135 79 225 2.0 5.0 0.00 0.00 0.00 86 1016.0
20210614145524 79 270 1.0 5.0 0.00 0.00 0.00 89 1016.1
20210614145034 78 270 2.0 5.0 0.00 0.00 0.00 87 1016.2
20210614144552 78 276 2.0 5.0 0.00 0.00 0.00 90 1016.2
20210614144021 77 286 3.0 6.0 0.00 0.00 0.00 89 1016.2
20210614143519 77 281 3.0 7.0 0.00 0.00 0.00 89 1016.2
20210614143059 76 280 3.0 7.0 0.00 0.00 0.00 88 1016.2
20210614142518 76 270 1.0 6.0 0.00 0.00 0.00 91 1016.2
20210614142016 75 284 1.0 8.0 0.00 0.00 0.00 88 1016.2
20210614141522 75 267 3.0 8.0 0.00 0.00 0.00 89 1016.2
20210614140556 75 272 4.0 7.0 0.00 0.00 0.00 89 1016.2
20210614140204 75 45 1.0 6.0 0.00 0.00 0.00 90 1016.2
20210614135605 75 265 1.0 6.0 0.00 0.00 0.00 90 1016.1
20210614135053 74 260 1.0 4.0 0.00 0.00 0.00 90 1016.1
20210614134723 74 215 1.0 4.0 0.00 0.00 0.00 90 1016.1
20210614134049 73 278 1.0 3.0 0.00 0.00 0.00 92 1016.2
20210614133547 73 317 1.0 2.0 0.00 0.00 0.00 92 1016.2
20210614133107 72 192 0.0 3.0 0.00 0.00 0.00 93 1016.2
20210614132552 72 244 0.0 3.0 0.00 0.00 0.00 94 1016.2
20210614132043 71 253 0.0 3.0 0.00 0.00 0.00 95 1016.2
20210614131613 70 239 0.0 3.0 0.00 0.00 0.00 95 1016.3
20210614131035 70 244 0.0 4.0 0.00 0.00 0.00 95 1016.2
20210614130535 70 184 2.0 4.0 0.00 0.00 0.00 94 1016.1
20210614130120 69 199 0.0 3.0 0.00 0.00 0.00 94 1016.0
20210614125532 69 212 0.0 3.0 0.00 0.00 0.00 94 1015.8
20210614125040 69 196 0.0 3.0 0.00 0.00 0.00 94 1015.8
20210614124638 69 130 0.0 3.0 0.00 0.00 0.00 95 1015.7
20210614124032 68 168 1.0 3.0 0.00 0.00 0.00 95 1015.8
20210614123531 68 197 0.0 1.0 0.00 0.00 0.00 95 1015.7
20210614123106 68 220 0.0 1.0 0.00 0.00 0.00 96 1015.8
20210614122534 67 220 0.0 0.0 0.00 0.00 0.00 95 1015.9
20210614122031 67 297 0.0 0.0 0.00 0.00 0.00 96 1015.8
20210614121542 67 283 0.0 0.0 0.00 0.00 0.00 96 1015.9
20210614121032 67 287 0.0 0.0 0.00 0.00 0.00 95 1015.7
20210614120524 68 184 0.0 0.0 0.00 0.00 0.00 94 1015.6
20210614120043 67 184 0.0 0.0 0.00 0.00 0.00 94 1015.4
20210614115526 66 184 0.0 0.0 0.00 0.00 0.00 93 1015.4
20210614115020 66 184 0.0 0.0 0.00 0.00 0.00 93 1015.6
20210614114543 64 184 0.0 0.0 0.00 0.00 0.00 91 1015.5
20210614114019 63 184 0.0 0.0 0.00 0.00 0.00 89 1015.5
20210614113527 62 184 0.0 0.0 0.00 0.00 0.00 88 1015.5
20210614113106 60 184 0.0 0.0 0.00 0.00 0.00 89 1015.6
20210614112516 60 184 0.0 0.0 0.00 0.00 0.00 90 1015.6
20210614112017 60 184 0.0 0.0 0.00 0.00 0.00 90 1015.6
20210614111517 59 284 0.0 0.0 0.00 0.00 0.00 90 1015.8
20210614111011 59 283 0.0 0.0 0.00 0.00 0.00 90 1015.7
20210614110511 59 283 0.0 0.0 0.00 0.00 0.00 90 1015.7
20210614110009 59 284 0.0 0.0 0.00 0.00 0.00 90 1015.6
20210614105512 59 283 0.0 0.0 0.00 0.00 0.00 90 1015.6
20210614105006 59 283 0.0 0.0 0.00 0.00 0.00 90 1015.8
20210614104507 59 283 0.0 0.0 0.00 0.00 0.00 90 1015.8
20210614104005 59 284 0.0 0.0 0.00 0.00 0.00 89 1015.8
20210614103503 59 283 0.0 0.0 0.00 0.00 0.00 90 1015.9
20210614103004 59 284 0.0 0.0 0.00 0.00 0.00 90 1015.8
20210614102502 59 283 0.0 0.0 0.00 0.00 0.00 90 1015.9